Regional Weather Roundup
Issued by NWS

Home | Current Version | Previous Version | Text Only | Print | Product List | Glossary On
Versions: 1 2 3 4 5 6 7 8 9 10 11 12 13 14 15 16 17 18 19 20 21 22 23 24 25 26 27 28 29
000
ASUS45 KCYS 301810
RWRWY

WYOMING REGIONAL WEATHER ROUNDUP
NATIONAL WEATHER SERVICE CHEYENNE WY
1200 PM MDT THU OCT 30 2014

NOTE:  "FAIR" INDICATES FEW OR NO CLOUDS BELOW 12,000 FEET
WITH NO SIGNIFICANT WEATHER AND/OR OBSTRUCTIONS TO VISIBILITY.

WYZ001-301900-
YELLOWSTONE NATIONAL PARK

CITY           SKY/WX    TMP DP  RH WIND       PRES   REMARKS
LK YELLOWSTONE   N/A     44  29  55 VRB3      30.40
6HR MIN TEMP:  25; 6HR MAX TEMP:  44;

W YELLOWSTONE  NOT AVBL

$$
WYZ002>013-054>058-071-098>099-301900-
NORTHERN WYOMING

CITY           SKY/WX    TMP DP  RH WIND       PRES   REMARKS
JACKSON        SUNNY     45  30  57 CALM      30.38F
CODY           PTSUNNY   50  30  46 CALM      30.32
GREYBULL       MOSUNNY   51  24  34 VRB3      30.32F
6HR MIN TEMP:  29; 6HR MAX TEMP:  51;

WORLAND        SUNNY     51  26  37 W3        30.32S
6HR MIN TEMP:  27; 6HR MAX TEMP:  51;

SHERIDAN       SUNNY     57  30  35 E5        30.34S
6HR MIN TEMP:  29; 6HR MAX TEMP:  57;

BUFFALO        SUNNY     54  25  32 S3        30.36R
6HR MIN TEMP:  34; 6HR MAX TEMP:  54;

GILLETTE       SUNNY     54  31  41 W9        30.34S
6HR MIN TEMP:  34; 6HR MAX TEMP:  54;

HULETT         FAIR      52  34  50 NW5       30.35
NEWCASTLE      FAIR      54  32  43 NW14      30.34

$$
WYZ014>020-022>026-101>103-301900-
CENTRAL WYOMING

CITY           SKY/WX    TMP DP  RH WIND       PRES   REMARKS
BIG PINEY      SUNNY     46  27  47 CALM      30.40F
6HR MIN TEMP:  18; 6HR MAX TEMP:  46;

PINEDALE       CLEAR     46  28  49 CALM      30.41
DUBOIS         FAIR      52  21  30 NW6       30.34S
LANDER         MOSUNNY   50  28  42 VRB6      30.33S
6HR MIN TEMP:  34; 6HR MAX TEMP:  50;

RIVERTON       PTSUNNY   48  27  44 VRB3      30.35F
6HR MIN TEMP:  29; 6HR MAX TEMP:  48;

CASPER         SUNNY     51  24  34 E5        30.36S
6HR MIN TEMP:  21; 6HR MAX TEMP:  51;

DOUGLAS        SUNNY     55  29  36 VRB3      30.37S
6HR MIN TEMP:  26; 6HR MAX TEMP:  55;


$$
WYZ021-027>030-104>119-301900-
SOUTHERN WYOMING

CITY           SKY/WX    TMP DP  RH WIND       PRES   REMARKS
EVANSTON       MOSUNNY   59  27  29 VRB3      30.37F
6HR MIN TEMP:  36; 6HR MAX TEMP:  59;

KEMMERER       CLEAR     52  30  43 SE5       30.40S
FORT BRIDGER   FAIR      54  27  34 NE3       30.41S
ROCK SPRINGS   SUNNY     52  28  39 CALM      30.38F
6HR MIN TEMP:  30; 6HR MAX TEMP:  52;

DIXON          FAIR      55  29  37 W3        30.43S
RAWLINS        SUNNY     53  29  39 W10       30.39F
6HR MIN TEMP:  30; 6HR MAX TEMP:  53;

SARATOGA       FAIR      54  28  37 S7        30.40F
LARAMIE        SUNNY     50  27  40 E3        30.38F
6HR MIN TEMP:  25; 6HR MAX TEMP:  50;

CHEYENNE       SUNNY     55  25  31 N9G18     30.36F
6HR MIN TEMP:  32; 6HR MAX TEMP:  55;

TORRINGTON     SUNNY     57  28  33 VRB6      30.33F
6HR MIN TEMP:  30; 6HR MAX TEMP:  58;

PINE BLUFFS    FAIR      54  27  35 N8        30.36F

$$



USA.gov is the U.S. government's official web portal to all federal, state and local government web resources and services.